Location: ???????????
(54.5822°N, 39.1075°E)
Time: 09:36:27
(UTC+00:00)

NOSS 3-1 (A) - Pass Details

Date: 19 May 2025
Orbit: 639 x 1569 km, 63.4° (Epoch: 10 June)

Event Time Altitude Azimuth Distance (km) Brightness Sun altitude
Rises 20:50:31 0° 236° (SW) 3,073 5.9 -15.2°
Reaches altitude 10° 20:52:40 10° 238° (WSW) 2,230 5.2 -15.2°
Maximum altitude 20:57:44 75° 324° (NW) 868 3.4 -15.3°
Drops below altitude 10° 21:04:04 10° 50° (NE) 2,768 6.4 -15.4°
Sets 21:07:00 0° 52° (NE) 3,875 7.1 -15.4°
